TimeMST,TemperatureF,Dew PointF,Humidity,Sea Level PressureIn,VisibilityMPH,Wind Direction,Wind SpeedMPH,Gust SpeedMPH,PrecipitationIn,Events,Conditions,WindDirDegrees,DateUTC
12:56 AM,35.1,24.1,64,30.09,10.0,WSW,8.1,-,N/A,,Overcast,250,2013-01-31 07:56:00
1:56 AM,35.1,24.1,64,30.09,10.0,SSW,8.1,-,N/A,,Overcast,210,2013-01-31 08:56:00
2:56 AM,35.1,24.1,64,30.10,10.0,WNW,3.5,-,N/A,,Overcast,300,2013-01-31 09:56:00
3:56 AM,34.0,24.1,67,30.12,10.0,Calm,Calm,-,N/A,,Overcast,0,2013-01-31 10:56:00
4:56 AM,34.0,24.1,67,30.13,10.0,Calm,Calm,-,N/A,,Overcast,0,2013-01-31 11:56:00
5:56 AM,35.1,23.0,61,30.14,10.0,SW,5.8,-,N/A,,Overcast,230,2013-01-31 12:56:00
6:56 AM,34.0,23.0,64,30.14,10.0,West,5.8,-,N/A,,Overcast,270,2013-01-31 13:56:00
7:56 AM,36.0,23.0,59,30.15,10.0,West,9.2,-,N/A,,Overcast,280,2013-01-31 14:56:00
8:56 AM,34.0,25.0,70,30.18,10.0,WNW,6.9,-,N/A,,Overcast,290,2013-01-31 15:56:00
9:56 AM,33.1,25.0,72,30.19,10.0,East,6.9,-,0.00,Snow,Light Snow,80,2013-01-31 16:56:00
10:56 AM,34.0,27.0,75,30.19,9.0,East,4.6,-,0.00,,Overcast,100,2013-01-31 17:56:00
11:56 AM,36.0,27.0,70,30.17,10.0,East,3.5,-,0.00,,Overcast,90,2013-01-31 18:56:00
12:56 PM,35.1,28.0,76,30.17,10.0,SE,3.5,-,N/A,,Overcast,140,2013-01-31 19:56:00
1:56 PM,37.0,26.1,65,30.14,10.0,Calm,Calm,-,N/A,,Overcast,0,2013-01-31 20:56:00
2:56 PM,37.9,27.0,65,30.14,10.0,Calm,Calm,-,N/A,,Overcast,0,2013-01-31 21:56:00
3:56 PM,39.9,25.0,55,30.14,10.0,Calm,Calm,-,N/A,,Overcast,0,2013-01-31 22:56:00
4:56 PM,39.9,26.1,58,30.13,10.0,WSW,8.1,-,N/A,,Overcast,250,2013-01-31 23:56:00
5:56 PM,39.9,26.1,58,30.13,10.0,ENE,4.6,-,N/A,,Overcast,60,2013-02-01 00:56:00
6:56 PM,37.0,28.9,73,30.15,10.0,NE,5.8,-,N/A,,Overcast,50,2013-02-01 01:56:00
7:56 PM,37.9,28.0,68,30.14,10.0,Calm,Calm,-,N/A,,Overcast,0,2013-02-01 02:56:00
8:56 PM,37.9,27.0,65,30.14,10.0,Calm,Calm,-,N/A,,Overcast,0,2013-02-01 03:56:00
9:56 PM,37.9,26.1,62,30.14,10.0,Calm,Calm,-,N/A,,Overcast,0,2013-02-01 04:56:00
10:56 PM,34.0,27.0,75,30.14,10.0,SE,3.5,-,N/A,,Overcast,130,2013-02-01 05:56:00
11:56 PM,37.0,26.1,65,30.11,10.0,ESE,3.5,-,N/A,,Overcast,120,2013-02-01 06:56:00